Weather History for Atlantic City, NJ

Change the Weather History Date:

Wednesday, February 20, 2013

  Actual Average Record
Temperature  
Mean Temperature 32 °F 36 °F  
Max Temperature 38 °F 45 °F 71 °F (1930)
Min Temperature 25 °F 27 °F 0 °F (1966)
Degree Days  
Heating Degree Days 33 29  
Month to date heating degree days 643 608  
Since 1 July heating degree days 3203 3369  
Cooling Degree Days 0 0  
Month to date cooling degree days 0 0  
Year to date cooling degree days 0 0  
Moisture  
Dew Point 15 °F    
Average Humidity 57    
Maximum Humidity 75    
Minimum Humidity 38    
Precipitation  
Precipitation 0.00 in 0.11 in 1.65 in (1921)
Month to date precipitation 3.55 1.98  
Year to date precipitation 5.85 5.20  
Snow  
Snow 0.00 in 0.20 in 5.10 in (1969)
Month to date snowfall 6.3 5.1  
Since 1 July snowfall 11.4 13.5  
Snow Depth 0.00 in    
Sea Level Pressure  
Sea Level Pressure 29.94 in    
Wind  
Wind Speed 17 mph (WNW)    
Max Wind Speed 30 mph    
Max Gust Speed 37 mph    
Visibility 10 miles    
Events      
T = Trace of Precipitation, MM = Missing Value Source: NWS Daily Summary

Daily Weather History Graph

Daily Weather History Graph

Search for Another Location

Airport:

Trip Planner

Search our weather history database for the weather conditions in past years. The results will help you decide how hot, cold, wet, or windy it might be!

Date:

Astronomy

Feb. 20, 2013 Rise Set
Actual Time 6:43 AM EST 5:40 PM EST
Civil Twilight 6:16 AM EST 6:08 PM EST
Nautical Twilight 5:44 AM EST 6:39 PM EST
Astronomical Twilight 5:13 AM EST 7:10 PM EST
Moon 1:01 PM EST (2/20) 3:00 AM EST (2/20)
Length of Visible Light 11h 51m
Length of Day
10h 57m
Waxing Gibbous, 76% of the Moon is Illuminated
Feb 20
Waxing Gibbous
Feb 25
Full
Mar 4
Last Quarter
Mar 11
New
Mar 19
First Quarter

Hourly Weather History & Observations

Time (EST) Temp. Windchill Dew Point Humidity Pressure Visibility Wind Dir Wind Speed Gust Speed Precip Events Conditions
12:54 AM 36.0 °F 29.0 °F 26.1 °F 67% 29.81 in 10.0 mi WNW 9.2 mph - N/A   Clear
1:54 AM 34.0 °F 28.0 °F 26.1 °F 73% 29.82 in 10.0 mi West 6.9 mph - N/A   Clear
2:54 AM 34.0 °F 23.8 °F 24.1 °F 67% 29.83 in 10.0 mi WNW 16.1 mph 21.9 mph N/A   Clear
3:54 AM 34.0 °F 25.0 °F 19.0 °F 54% 29.84 in 10.0 mi West 12.7 mph - N/A   Partly Cloudy
4:54 AM 32.0 °F 22.1 °F 18.0 °F 56% 29.86 in 10.0 mi WNW 13.8 mph - N/A   Clear
5:54 AM 30.0 °F 20.5 °F 17.1 °F 59% 29.88 in 10.0 mi WNW 11.5 mph - N/A   Clear
6:54 AM 30.0 °F 23.2 °F 17.1 °F 59% 29.91 in 10.0 mi West 6.9 mph - N/A   Scattered Clouds
7:54 AM 32.0 °F 24.2 °F 16.0 °F 52% 29.94 in 10.0 mi West 9.2 mph - N/A   Clear
8:54 AM 32.0 °F 19.5 °F 15.1 °F 50% 29.93 in 10.0 mi WNW 21.9 mph 31.1 mph N/A   Scattered Clouds
9:54 AM 33.1 °F 20.6 °F 12.9 °F 43% 29.95 in 10.0 mi WNW 23.0 mph 29.9 mph N/A   Scattered Clouds
10:54 AM 34.0 °F 22.4 °F 14.0 °F 44% 29.94 in 10.0 mi WNW 20.7 mph 33.4 mph N/A   Mostly Cloudy
11:54 AM 34.0 °F 23.4 °F 12.9 °F 42% 29.94 in 10.0 mi West 17.3 mph 27.6 mph N/A   Overcast
12:54 PM 33.1 °F 21.5 °F 15.1 °F 48% 29.94 in 10.0 mi WNW 19.6 mph 27.6 mph N/A   Overcast
1:54 PM 33.1 °F 20.6 °F 10.9 °F 40% 29.93 in 10.0 mi West 23.0 mph 29.9 mph N/A   Overcast
2:54 PM 32.0 °F 20.1 °F 12.0 °F 44% 29.94 in 10.0 mi WNW 19.6 mph 32.2 mph N/A   Overcast
3:54 PM 32.0 °F 18.6 °F 10.9 °F 42% 29.95 in 10.0 mi WNW 25.3 mph 36.8 mph N/A   Overcast
4:54 PM 30.9 °F 16.7 °F 10.0 °F 42% 29.98 in 10.0 mi West 27.6 mph 36.8 mph N/A   Overcast
5:54 PM 28.9 °F 15.4 °F 8.1 °F 41% 30.01 in 10.0 mi WNW 21.9 mph 34.5 mph N/A   Scattered Clouds
6:54 PM 28.0 °F 16.1 °F 9.0 °F 45% 30.02 in 10.0 mi WNW 16.1 mph - N/A   Clear
7:54 PM 27.0 °F 15.6 °F 10.0 °F 49% 30.04 in 10.0 mi WNW 13.8 mph - N/A   Clear
8:54 PM 27.0 °F 13.2 °F 9.0 °F 47% 30.05 in 10.0 mi WNW 20.7 mph 26.5 mph N/A   Clear
9:54 PM 26.1 °F 14.5 °F 9.0 °F 49% 30.06 in 10.0 mi WNW 13.8 mph - N/A   Clear
10:54 PM 26.1 °F 15.6 °F 9.0 °F 49% 30.07 in 10.0 mi West 11.5 mph - N/A   Clear
11:54 PM 25.0 °F 13.1 °F 8.1 °F 49% 30.08 in 10.0 mi West 13.8 mph - N/A   Clear